Stanley, ND

12:42 PM CDT on April 30, 2017 (GMT -0500)
Stanley

Weather History for K08D - May, 2014

Change the Weather History Date:

Tuesday, May 13, 2014

  Actual Average (KMIB) Record (KMIB)
Temperature  
Mean Temperature 42 °F -  
Max Temperature 53 °F 62 °F 89 °F (2001)
Min Temperature 32 °F 39 °F 17 °F (2004)
Degree Days  
Heating Degree Days 22    
Moisture  
Dew Point 27 °F    
Average Humidity 60    
Maximum Humidity 100    
Minimum Humidity 30    
Precipitation  
Precipitation 0.00 in - - ()
Sea Level Pressure  
Sea Level Pressure 30.21 in    
Wind  
Wind Speed 13 mph (NNW)    
Max Wind Speed 26 mph    
Max Gust Speed 38 mph    
Visibility 10 miles    
Events      
Averages and records for this station are not official NWS values.
T = Trace of Precipitation, MM = Missing Value Source: NWS Daily Summary

Daily Weather History Graph

Daily Weather History Graph

Search for Another Location

Airport or City:

Trip Planner

Search our weather history database for the weather conditions in past years. The results will help you decide how hot, cold, wet, or windy it might be!

Date:

Astronomy

May. 13, 2014 Rise Set
Actual Time 6:12 AM CDT 9:20 PM CDT
Civil Twilight 5:35 AM CDT 9:57 PM CDT
Nautical Twilight 4:47 AM CDT 10:46 PM CDT
Astronomical Twilight 3:47 AM CDT 11:46 PM CDT
Moon 8:18 PM CDT (5/13) 5:38 AM CDT (5/13)
Length of Visible Light 16h 22m
Length of Day
15h 07m
Waxing Gibbous, 99% of the Moon is Illuminated
May 13
Waxing Gibbous
May 14
Full
May 21
Last Quarter
May 28
New
Jun 5
First Quarter

Hourly Weather History & Observations

Time (CDT) Temp. Windchill Dew Point Humidity Pressure Visibility Wind Dir Wind Speed Gust Speed Precip Events Conditions
12:15 AM 37.4 °F 30.3 °F 28.4 °F 70% 30.21 in 10.0 mi NNW 10.4 mph - N/A   Clear
12:35 AM 37.4 °F 30.8 °F 28.4 °F 70% 30.21 in 10.0 mi NNW 9.2 mph - N/A   Clear
12:55 AM 35.6 °F 28.6 °F 30.2 °F 81% 30.21 in 10.0 mi NW 9.2 mph - N/A   Clear
1:15 AM 35.6 °F 28.6 °F 30.2 °F 81% 30.21 in 10.0 mi NW 9.2 mph - N/A   Clear
1:35 AM 35.6 °F 28.6 °F 28.4 °F 75% 30.21 in 10.0 mi NW 9.2 mph - N/A   Clear
1:55 AM 33.8 °F 27.0 °F 30.2 °F 87% 30.20 in 10.0 mi NW 8.1 mph - N/A   Clear
2:15 AM 32.0 °F 24.2 °F 30.2 °F 93% 30.20 in 10.0 mi NW 9.2 mph - N/A   Clear
2:35 AM 32.0 °F 24.8 °F 32.0 °F 100% 30.20 in 10.0 mi NW 8.1 mph - N/A   Clear
2:55 AM 32.0 °F 25.6 °F 32.0 °F 100% 30.20 in 10.0 mi NW 6.9 mph - N/A   Clear
3:15 AM 33.8 °F 25.8 °F 32.0 °F 93% 30.20 in 10.0 mi NW 10.4 mph - N/A   Clear
3:35 AM 33.8 °F 25.8 °F 32.0 °F 93% 30.20 in 10.0 mi NW 10.4 mph - N/A   Clear
3:55 AM 32.0 °F 23.6 °F 32.0 °F 100% 30.21 in 10.0 mi NW 10.4 mph 16.1 mph N/A   Clear
4:15 AM 32.0 °F 23.6 °F 32.0 °F 100% 30.20 in 10.0 mi NW 10.4 mph - N/A   Partly Cloudy
4:35 AM 32.0 °F 23.0 °F 32.0 °F 100% 30.21 in 10.0 mi NNW 11.5 mph 16.1 mph N/A   Clear
4:55 AM 32.0 °F 23.0 °F 32.0 °F 100% 30.21 in 10.0 mi NW 11.5 mph - N/A   Clear
5:15 AM 32.0 °F 23.0 °F 32.0 °F 100% 30.21 in 10.0 mi NNW 11.5 mph - N/A   Clear
5:35 AM 32.0 °F 23.6 °F 32.0 °F 100% 30.22 in 10.0 mi NNW 10.4 mph - N/A   Mostly Cloudy
5:55 AM 32.0 °F 23.6 °F 32.0 °F 100% 30.22 in 10.0 mi NNW 10.4 mph - N/A   Scattered Clouds
6:15 AM 32.0 °F 23.6 °F 32.0 °F 100% 30.22 in 10.0 mi NNW 10.4 mph 16.1 mph N/A   Partly Cloudy
6:35 AM 32.0 °F 23.6 °F 32.0 °F 100% 30.23 in 10.0 mi NW 10.4 mph - N/A   Clear
6:55 AM 32.0 °F 23.6 °F 32.0 °F 100% 30.24 in 10.0 mi NW 10.4 mph - N/A   Clear
8:15 AM 37.4 °F 29.3 °F 32.0 °F 81% 30.25 in 10.0 mi NW 12.7 mph 17.3 mph N/A   Clear
8:35 AM 39.2 °F 32.0 °F 32.0 °F 75% 30.24 in 10.0 mi NNW 11.5 mph 18.4 mph N/A   Clear
8:55 AM 39.2 °F 31.2 °F 32.0 °F 75% 30.25 in 10.0 mi NW 13.8 mph 17.3 mph N/A   Clear
9:15 AM 41.0 °F 32.8 °F 32.0 °F 70% 30.25 in 10.0 mi NW 16.1 mph 19.6 mph N/A   Clear
10:55 AM 44.6 °F 36.4 °F 23.0 °F 43% 30.24 in 10.0 mi NNW 20.7 mph 33.4 mph N/A   Scattered Clouds
11:35 AM 48.2 °F - 24.8 °F 40% 30.24 in 10.0 mi NNW 19.6 mph 31.1 mph N/A   Partly Cloudy
12:15 PM 48.2 °F - 24.8 °F 40% 30.23 in 10.0 mi NNW 18.4 mph 28.8 mph N/A   Scattered Clouds
12:35 PM 48.2 °F - 23.0 °F 37% 30.23 in 10.0 mi NW 19.6 mph 29.9 mph N/A   Mostly Cloudy
12:55 PM 48.2 °F - 23.0 °F 37% 30.23 in 10.0 mi NW 20.7 mph 31.1 mph N/A   Scattered Clouds
1:15 PM 50.0 °F - 24.8 °F 37% 30.22 in 10.0 mi NW 23.0 mph 32.2 mph N/A   Mostly Cloudy
1:35 PM 50.0 °F - 23.0 °F 35% 30.22 in 10.0 mi NW 24.2 mph 33.4 mph N/A   Scattered Clouds
1:55 PM 50.0 °F - 23.0 °F 35% 30.22 in 10.0 mi NW 20.7 mph 32.2 mph N/A   Scattered Clouds
2:15 PM 50.0 °F - 24.8 °F 37% 30.22 in 10.0 mi NW 18.4 mph 28.8 mph N/A   Scattered Clouds
2:35 PM 51.8 °F - 23.0 °F 33% 30.22 in 10.0 mi NW 18.4 mph 38.0 mph N/A   Scattered Clouds
2:55 PM 51.8 °F - 23.0 °F 33% 30.21 in 10.0 mi NW 24.2 mph 32.2 mph N/A   Partly Cloudy
3:15 PM 53.6 °F - 23.0 °F 30% 30.21 in 10.0 mi WNW 20.7 mph 28.8 mph N/A   Scattered Clouds
3:35 PM 51.8 °F - 23.0 °F 33% 30.20 in 10.0 mi NNW 21.9 mph 33.4 mph N/A   Scattered Clouds
3:55 PM 53.6 °F - 23.0 °F 30% 30.20 in 10.0 mi NNW 23.0 mph 34.5 mph N/A   Partly Cloudy
4:15 PM 53.6 °F - 23.0 °F 30% 30.20 in 10.0 mi NNW 24.2 mph 36.8 mph N/A   Scattered Clouds
4:35 PM 53.6 °F - 23.0 °F 30% 30.20 in 10.0 mi NNW 25.3 mph 32.2 mph N/A   Scattered Clouds
4:55 PM 53.6 °F - 23.0 °F 30% 30.20 in 10.0 mi NNW 18.4 mph 31.1 mph N/A   Mostly Cloudy
5:15 PM 53.6 °F - 23.0 °F 30% 30.20 in 10.0 mi NNW 19.6 mph 33.4 mph N/A   Mostly Cloudy
5:35 PM 51.8 °F - 21.2 °F 30% 30.19 in 10.0 mi NNW 26.5 mph 34.5 mph N/A   Mostly Cloudy
5:55 PM 51.8 °F - 21.2 °F 30% 30.19 in 10.0 mi NNW 23.0 mph 33.4 mph N/A   Scattered Clouds
6:15 PM 51.8 °F - 21.2 °F 30% 30.19 in 10.0 mi NNW 19.6 mph 29.9 mph N/A   Scattered Clouds
6:35 PM 50.0 °F - 21.2 °F 32% 30.19 in 10.0 mi NNW 21.9 mph 32.2 mph N/A   Mostly Cloudy
6:55 PM 50.0 °F - 23.0 °F 35% 30.18 in 10.0 mi NNW 21.9 mph 33.4 mph N/A   Scattered Clouds
7:15 PM 51.8 °F - 23.0 °F 33% 30.18 in 10.0 mi NNW 23.0 mph 31.1 mph N/A   Scattered Clouds
7:35 PM 50.0 °F - 23.0 °F 35% 30.18 in 10.0 mi NW 18.4 mph 31.1 mph N/A   Partly Cloudy
7:55 PM 50.0 °F - 23.0 °F 35% 30.18 in 10.0 mi NNW 19.6 mph 26.5 mph N/A   Partly Cloudy
8:15 PM 50.0 °F - 23.0 °F 35% 30.18 in 10.0 mi NNW 20.7 mph - N/A   Clear
8:35 PM 48.2 °F - 23.0 °F 37% 30.18 in 10.0 mi NNW 15.0 mph 26.5 mph N/A   Clear
8:55 PM 46.4 °F 40.7 °F 23.0 °F 40% 30.19 in 10.0 mi North 12.7 mph 19.6 mph N/A   Clear
9:15 PM 44.6 °F 38.8 °F 23.0 °F 43% 30.19 in 10.0 mi NNW 11.5 mph - N/A   Clear
9:35 PM 42.8 °F 37.0 °F 24.8 °F 49% 30.20 in 10.0 mi NNW 10.4 mph - N/A   Clear
9:55 PM 41.0 °F 35.2 °F 24.8 °F 53% 30.20 in 10.0 mi NNW 9.2 mph - N/A   Clear
10:15 PM 39.2 °F 33.0 °F 24.8 °F 56% 30.21 in 10.0 mi NNW 9.2 mph - N/A   Clear
10:35 PM 37.4 °F 30.8 °F 24.8 °F 60% 30.22 in 10.0 mi NNW 9.2 mph - N/A   Clear
10:55 PM 37.4 °F 31.4 °F 26.6 °F 65% 30.22 in 10.0 mi North 8.1 mph - N/A   Partly Cloudy
11:15 PM 35.6 °F 29.9 °F 26.6 °F 70% 30.23 in 10.0 mi North 6.9 mph - N/A   Partly Cloudy
11:35 PM 33.8 °F 27.7 °F 26.6 °F 75% 30.24 in 10.0 mi North 6.9 mph - N/A   Partly Cloudy
11:55 PM 32.0 °F 25.6 °F 26.6 °F 80% 30.25 in 10.0 mi North 6.9 mph - N/A   Partly Cloudy